Location: Trondheim
(63.4170°N, 10.4170°E)
Time: 20:39:22
(UTC+02:00)

Iridium 82 - Visible Passes

Search period start: 29 September 2016 00:00
Search period end: 09 October 2016 00:00
Orbit: 776 x 779 km, 86.4° (Epoch: 28 September)

Date Brightness Start Highest point End Pass type
(mag) Time Alt. Az. Time Alt. Az. Time Alt. Az.
29 Sep 5.9 19:54:59 10° N 20:00:00 43° ENE 20:04:59 10° SE visible
29 Sep 6.3 21:35:50 10° NNW 21:40:54 52° W 21:45:57 10° SSW visible
29 Sep 8.2 23:17:41 10° NNW 23:20:33 15° WNW 23:23:26 10° W visible
30 Sep 5.7 21:02:11 10° N 21:07:26 75° W 21:12:38 10° S visible
30 Sep 7.9 22:43:36 10° NNW 22:47:26 21° WNW 22:51:15 10° WSW visible
01 Oct 5.5 20:28:36 10° N 20:33:52 77° E 20:39:06 10° SSE visible
01 Oct 7.4 22:09:45 10° NNW 22:14:13 29° WNW 22:18:40 10° SW visible
02 Oct 5.7 19:55:03 10° N 20:00:12 54° ENE 20:05:20 10° SSE visible
02 Oct 6.8 21:36:00 10° NNW 21:40:54 41° W 21:45:47 10° SSW visible
02 Oct 8.4 23:18:21 10° NW 23:20:21 12° WNW 23:22:21 10° W visible
03 Oct 6.1 19:21:33 10° N 19:26:27 38° ENE 19:31:19 10° SE visible
03 Oct 6.1 21:02:20 10° N 21:07:29 60° W 21:12:37 10° SSW visible
03 Oct 8.2 22:43:59 10° NNW 22:47:17 17° WNW 22:50:35 10° WSW visible
04 Oct 5.6 20:28:43 10° N 20:33:59 86° W 20:39:13 10° S visible
04 Oct 7.8 22:10:01 10° NNW 22:14:07 24° WNW 22:18:14 10° SW visible
05 Oct 5.5 19:55:08 10° N 20:00:23 67° ENE 20:05:36 10° SSE visible
05 Oct 7.2 21:36:12 10° NNW 21:40:52 33° W 21:45:30 10° SW visible
06 Oct 5.8 19:21:36 10° N 19:26:41 47° ENE 19:31:43 10° SE visible
06 Oct 6.5 21:02:29 10° NNW 21:07:30 48° W 21:12:30 10° SSW visible
06 Oct 8.4 22:44:29 10° NNW 22:47:06 14° WNW 22:49:43 10° W visible
07 Oct 8.4 06:53:08 10° ESE 06:56:14 16° ENE 06:59:20 10° NNE visible
07 Oct 5.9 20:28:50 10° N 20:34:04 69° W 20:39:15 10° S visible
07 Oct 8.1 22:10:20 10° NNW 22:13:59 20° WNW 22:17:39 10° WSW visible
08 Oct 8.8 06:21:35 10° ENE 06:23:11 11° ENE 06:24:46 10° NE visible
08 Oct 5.5 19:55:14 10° N 20:00:31 83° E 20:05:46 10° S visible
08 Oct 7.6 21:36:26 10° NNW 21:40:48 27° WNW 21:45:08 10° SW visible
